| time (UTC) | temp F | wind direction | speed MPH | gust MPH | rain 1hr in | rain 24hr in | rain mn in | humidity % | barometer mb |
| 20260906105043 | 61 | 0 | 0.0 | 3.0 | 0.00 | 0.00 | 0.00 | 64 | 1010.0 |
| 20260906104621 | 61 | 112 | 0.0 | 3.0 | 0.00 | 0.00 | 0.00 | 62 | 1009.9 |
| 20260906104042 | 61 | 113 | 1.0 | 3.0 | 0.00 | 0.00 | 0.00 | 62 | 1010.0 |
| 20260906103541 | 61 | 0 | 0.0 | 2.0 | 0.00 | 0.00 | 0.00 | 64 | 1010.0 |
| 20260906103056 | 60 | 0 | 0.0 | 3.0 | 0.00 | 0.00 | 0.00 | 65 | 1009.9 |
| 20260906102545 | 60 | 0 | 0.0 | 4.0 | 0.00 | 0.00 | 0.00 | 64 | 1010.0 |
| 20260906102042 | 60 | 117 | 1.0 | 4.0 | 0.00 | 0.00 | 0.00 | 64 | 1009.9 |
| 20260906101554 | 60 | 111 | 2.0 | 4.0 | 0.00 | 0.00 | 0.00 | 64 | 1009.9 |
| 20260906101041 | 59 | 117 | 2.0 | 4.0 | 0.00 | 0.00 | 0.00 | 65 | 1009.9 |
| 20260906100542 | 59 | 116 | 1.0 | 4.0 | 0.00 | 0.00 | 0.00 | 69 | 1010.0 |
| 20260906100052 | 58 | 0 | 0.0 | 7.0 | 0.00 | 0.00 | 0.00 | 71 | 1010.0 |
| 20260906095544 | 57 | 93 | 2.0 | 7.0 | 0.00 | 0.00 | 0.00 | 70 | 1009.9 |
| 20260906095042 | 56 | 118 | 2.0 | 4.0 | 0.00 | 0.00 | 0.00 | 71 | 1009.9 |
| 20260906094641 | 56 | 0 | 0.0 | 1.0 | 0.00 | 0.00 | 0.00 | 73 | 1009.9 |
| 20260906094042 | 55 | 0 | 0.0 | 0.0 | 0.00 | 0.00 | 0.00 | 73 | 1009.9 |
| 20260906093542 | 55 | 0 | 0.0 | 3.0 | 0.00 | 0.00 | 0.00 | 72 | 1009.9 |
| 20260906093105 | 54 | 0 | 0.0 | 3.0 | 0.00 | 0.00 | 0.00 | 73 | 1009.8 |
| 20260906092545 | 54 | 0 | 1.0 | 3.0 | 0.00 | 0.00 | 0.00 | 73 | 1009.8 |
| 20260906092042 | 54 | 0 | 0.0 | 0.0 | 0.00 | 0.00 | 0.00 | 74 | 1009.8 |
| 20260906091555 | 54 | 0 | 0.0 | 0.0 | 0.00 | 0.00 | 0.00 | 75 | 1009.9 |
| 20260906091043 | 54 | 0 | 0.0 | 0.0 | 0.00 | 0.00 | 0.00 | 75 | 1009.8 |
| 20260906090543 | 54 | 0 | 0.0 | 0.0 | 0.00 | 0.00 | 0.00 | 75 | 1009.8 |
| 20260906090054 | 54 | 0 | 0.0 | 0.0 | 0.00 | 0.00 | 0.00 | 75 | 1009.8 |
| 20260906085542 | 54 | 0 | 0.0 | 0.0 | 0.00 | 0.00 | 0.00 | 76 | 1009.7 |
| 20260906085041 | 53 | 0 | 0.0 | 0.0 | 0.00 | 0.00 | 0.00 | 76 | 1009.8 |
| 20260906084600 | 53 | 0 | 0.0 | 0.0 | 0.00 | 0.00 | 0.00 | 76 | 1009.7 |
| 20260906084041 | 53 | 0 | 0.0 | 0.0 | 0.00 | 0.00 | 0.00 | 77 | 1009.7 |
| 20260906083544 | 53 | 0 | 0.0 | 0.0 | 0.00 | 0.00 | 0.00 | 77 | 1009.7 |
| 20260906083056 | 53 | 0 | 0.0 | 0.0 | 0.00 | 0.00 | 0.00 | 77 | 1009.7 |
| 20260906082541 | 53 | 0 | 0.0 | 0.0 | 0.00 | 0.00 | 0.00 | 77 | 1009.7 |
| 20260906082043 | 53 | 0 | 0.0 | 0.0 | 0.00 | 0.00 | 0.00 | 77 | 1009.5 |
| 20260906081556 | 53 | 0 | 0.0 | 0.0 | 0.00 | 0.00 | 0.00 | 77 | 1009.5 |
| 20260906081041 | 53 | 0 | 0.0 | 0.0 | 0.00 | 0.00 | 0.00 | 77 | 1009.6 |
| 20260906080541 | 52 | 0 | 0.0 | 0.0 | 0.00 | 0.00 | 0.00 | 77 | 1009.6 |
| 20260906080055 | 52 | 0 | 0.0 | 0.0 | 0.00 | 0.00 | 0.00 | 77 | 1009.6 |
| 20260906075542 | 52 | 0 | 0.0 | 0.0 | 0.00 | 0.00 | 0.00 | 77 | 1009.6 |
| 20260906075042 | 52 | 0 | 0.0 | 0.0 | 0.00 | 0.00 | 0.00 | 77 | 1009.5 |
| 20260906074609 | 52 | 0 | 0.0 | 0.0 | 0.00 | 0.00 | 0.00 | 77 | 1009.6 |
| 20260906074042 | 52 | 0 | 0.0 | 0.0 | 0.00 | 0.00 | 0.00 | 78 | 1009.5 |
| 20260906073542 | 52 | 0 | 0.0 | 0.0 | 0.00 | 0.00 | 0.00 | 78 | 1009.5 |
| 20260906073058 | 52 | 0 | 0.0 | 0.0 | 0.00 | 0.00 | 0.00 | 77 | 1009.4 |
| 20260906072543 | 52 | 0 | 0.0 | 0.0 | 0.00 | 0.00 | 0.00 | 78 | 1009.4 |
| 20260906072042 | 52 | 0 | 0.0 | 0.0 | 0.00 | 0.00 | 0.00 | 78 | 1009.5 |
| 20260906071556 | 52 | 0 | 0.0 | 0.0 | 0.00 | 0.00 | 0.00 | 79 | 1009.5 |
| 20260906071046 | 52 | 0 | 0.0 | 0.0 | 0.00 | 0.00 | 0.00 | 79 | 1009.4 |
| 20260906070542 | 51 | 0 | 0.0 | 0.0 | 0.00 | 0.00 | 0.00 | 79 | 1009.4 |
| 20260906070103 | 51 | 0 | 0.0 | 0.0 | 0.00 | 0.00 | 0.00 | 79 | 1009.4 |
| 20260906065543 | 51 | 0 | 0.0 | 0.0 | 0.00 | 0.00 | 0.00 | 79 | 1009.3 |
| 20260906065042 | 51 | 0 | 0.0 | 0.0 | 0.00 | 0.00 | 0.00 | 79 | 1009.4 |
| 20260906064556 | 51 | 0 | 0.0 | 2.0 | 0.00 | 0.00 | 0.00 | 80 | 1009.3 |
| 20260906064044 | 51 | 0 | 0.0 | 2.0 | 0.00 | 0.00 | 0.00 | 80 | 1009.3 |
| 20260906063545 | 51 | 0 | 0.0 | 0.0 | 0.00 | 0.00 | 0.00 | 80 | 1009.3 |
| 20260906063103 | 51 | 0 | 0.0 | 0.0 | 0.00 | 0.00 | 0.00 | 80 | 1009.3 |
| 20260906062543 | 51 | 0 | 0.0 | 0.0 | 0.00 | 0.00 | 0.00 | 81 | 1009.2 |
| 20260906062046 | 50 | 0 | 0.0 | 0.0 | 0.00 | 0.00 | 0.00 | 81 | 1009.3 |
| 20260906061607 | 50 | 0 | 0.0 | 0.0 | 0.00 | 0.00 | 0.00 | 81 | 1009.2 |
| 20260906061043 | 50 | 0 | 0.0 | 0.0 | 0.00 | 0.00 | 0.00 | 81 | 1009.2 |
| 20260906060545 | 50 | 0 | 0.0 | 4.0 | 0.00 | 0.00 | 0.00 | 81 | 1009.2 |
| 20260906060106 | 50 | 0 | 0.0 | 4.0 | 0.00 | 0.00 | 0.00 | 81 | 1009.2 |
| 20260906055546 | 50 | 27 | 0.0 | 2.0 | 0.00 | 0.00 | 0.00 | 82 | 1009.2 |
| 20260906055044 | 50 | 0 | 0.0 | 2.0 | 0.00 | 0.00 | 0.00 | 82 | 1009.1 |
| 20260906054557 | 50 | 0 | 0.0 | 2.0 | 0.00 | 0.00 | 0.00 | 82 | 1009.0 |
| 20260906054049 | 50 | 0 | 0.0 | 0.0 | 0.00 | 0.00 | 0.00 | 82 | 1009.1 |
| 20260906053544 | 50 | 0 | 0.0 | 0.0 | 0.00 | 0.00 | 0.00 | 82 | 1009.2 |
| 20260906053104 | 49 | 0 | 0.0 | 0.0 | 0.00 | 0.00 | 0.00 | 82 | 1009.1 |
| 20260906052547 | 49 | 0 | 0.0 | 0.0 | 0.00 | 0.00 | 0.00 | 82 | 1009.0 |
| 20260906052044 | 49 | 0 | 0.0 | 0.0 | 0.00 | 0.00 | 0.00 | 82 | 1009.0 |
| 20260906051557 | 49 | 0 | 0.0 | 0.0 | 0.00 | 0.00 | 0.00 | 82 | 1008.9 |
| 20260906051047 | 49 | 0 | 0.0 | 0.0 | 0.00 | 0.00 | 0.00 | 82 | 1009.0 |
| 20260906050545 | 49 | 0 | 0.0 | 0.0 | 0.00 | 0.00 | 0.00 | 83 | 1008.9 |
| 20260906050114 | 49 | 0 | 0.0 | 0.0 | 0.00 | 0.00 | 0.00 | 82 | 1008.8 |
| 20260906045543 | 49 | 0 | 0.0 | 0.0 | 0.00 | 0.00 | 0.00 | 83 | 1008.7 |
| 20260906045043 | 49 | 0 | 0.0 | 0.0 | 0.00 | 0.00 | 0.00 | 83 | 1008.7 |
| 20260906044559 | 49 | 0 | 0.0 | 0.0 | 0.00 | 0.00 | 0.00 | 82 | 1008.7 |
| 20260906044046 | 49 | 0 | 0.0 | 0.0 | 0.00 | 0.00 | 0.00 | 82 | 1008.6 |
| 20260906043543 | 48 | 0 | 0.0 | 1.0 | 0.00 | 0.00 | 0.00 | 82 | 1008.5 |
| 20260906043059 | 48 | 0 | 0.0 | 3.0 | 0.00 | 0.00 | 0.00 | 82 | 1008.5 |
| 20260906042544 | 48 | 0 | 0.0 | 3.0 | 0.00 | 0.00 | 0.00 | 82 | 1008.4 |
| 20260906042044 | 48 | 0 | 0.0 | 0.0 | 0.00 | 0.00 | 0.00 | 82 | 1008.4 |
| 20260906041553 | 48 | 0 | 0.0 | 0.0 | 0.00 | 0.00 | 0.00 | 82 | 1008.4 |
| 20260906041044 | 48 | 0 | 0.0 | 0.0 | 0.00 | 0.00 | 0.00 | 81 | 1008.3 |
| 20260906040547 | 48 | 0 | 0.0 | 0.0 | 0.00 | 0.00 | 0.00 | 81 | 1008.2 |
| 20260906040121 | 49 | 0 | 0.0 | 0.0 | 0.00 | 0.00 | 0.00 | 81 | 1008.2 |
| 20260906035546 | 49 | 0 | 0.0 | 0.0 | 0.00 | 0.00 | 0.00 | 81 | 1008.2 |
| 20260906035044 | 49 | 0 | 0.0 | 0.0 | 0.00 | 0.00 | 0.00 | 81 | 1008.2 |
| 20260906034606 | 49 | 0 | 0.0 | 0.0 | 0.00 | 0.00 | 0.00 | 81 | 1008.1 |
| 20260906034043 | 49 | 0 | 0.0 | 0.0 | 0.00 | 0.00 | 0.00 | 81 | 1008.2 |
| 20260906033544 | 49 | 0 | 0.0 | 1.0 | 0.00 | 0.00 | 0.00 | 81 | 1008.1 |
| 20260906033100 | 49 | 0 | 0.0 | 2.0 | 0.00 | 0.00 | 0.00 | 81 | 1008.1 |
| 20260906032544 | 49 | 0 | 0.0 | 2.0 | 0.00 | 0.00 | 0.00 | 81 | 1008.1 |
| 20260906032044 | 49 | 86 | 0.0 | 2.0 | 0.00 | 0.00 | 0.00 | 81 | 1008.1 |
| 20260906031605 | 49 | 0 | 0.0 | 2.0 | 0.00 | 0.00 | 0.00 | 81 | 1008.1 |
| 20260906031044 | 49 | 88 | 0.0 | 2.0 | 0.00 | 0.00 | 0.00 | 80 | 1008.0 |
| 20260906030544 | 49 | 82 | 0.0 | 4.0 | 0.00 | 0.00 | 0.00 | 80 | 1007.9 |
| 20260906030111 | 49 | 0 | 0.0 | 4.0 | 0.00 | 0.00 | 0.00 | 80 | 1007.9 |
| 20260906025543 | 50 | 0 | 0.0 | 4.0 | 0.00 | 0.00 | 0.00 | 81 | 1008.0 |
| 20260906025043 | 50 | 0 | 0.0 | 4.0 | 0.00 | 0.00 | 0.00 | 81 | 1007.9 |
| 20260906024603 | 50 | 293 | 0.0 | 3.0 | 0.00 | 0.00 | 0.00 | 80 | 1007.9 |
| 20260906024045 | 50 | 9 | 0.0 | 4.0 | 0.00 | 0.00 | 0.00 | 81 | 1007.9 |
| 20260906023543 | 50 | 0 | 0.0 | 4.0 | 0.00 | 0.00 | 0.00 | 80 | 1007.9 |
| 20260906023103 | 50 | 303 | 0.0 | 0.0 | 0.00 | 0.00 | 0.00 | 80 | 1007.8 |
| 20260906022544 | 50 | 0 | 0.0 | 0.0 | 0.00 | 0.00 | 0.00 | 81 | 1007.8 |
| 20260906022048 | 50 | 0 | 0.0 | 3.0 | 0.00 | 0.00 | 0.00 | 80 | 1007.9 |
| 20260906021608 | 50 | 0 | 0.0 | 3.0 | 0.00 | 0.00 | 0.00 | 81 | 1007.8 |
| 20260906021043 | 50 | 0 | 1.0 | 6.0 | 0.00 | 0.00 | 0.00 | 80 | 1007.7 |
| 20260906020543 | 50 | 352 | 0.0 | 6.0 | 0.00 | 0.00 | 0.00 | 80 | 1007.7 |
| 20260906020106 | 50 | 0 | 2.0 | 9.0 | 0.00 | 0.00 | 0.00 | 80 | 1007.7 |
| 20260906015543 | 50 | 5 | 1.0 | 9.0 | 0.00 | 0.00 | 0.00 | 81 | 1007.6 |
| 20260906015044 | 50 | 265 | 1.0 | 10.0 | 0.00 | 0.00 | 0.00 | 81 | 1007.5 |
| 20260906014559 | 50 | 0 | 2.0 | 10.0 | 0.00 | 0.00 | 0.00 | 81 | 1007.5 |
| 20260906014045 | 50 | 337 | 1.0 | 10.0 | 0.00 | 0.00 | 0.00 | 81 | 1007.5 |
| 20260906013544 | 50 | 32 | 1.0 | 4.0 | 0.00 | 0.00 | 0.00 | 81 | 1007.6 |
| 20260906013055 | 50 | 0 | 0.0 | 3.0 | 0.00 | 0.00 | 0.00 | 81 | 1007.5 |
| 20260906012545 | 50 | 252 | 0.0 | 2.0 | 0.00 | 0.00 | 0.00 | 82 | 1007.5 |
| 20260906012043 | 50 | 352 | 0.0 | 3.0 | 0.00 | 0.00 | 0.00 | 82 | 1007.5 |
| 20260906011603 | 50 | 0 | 0.0 | 3.0 | 0.00 | 0.00 | 0.00 | 82 | 1007.4 |
| 20260906011046 | 50 | 144 | 0.0 | 4.0 | 0.00 | 0.00 | 0.00 | 81 | 1007.4 |
| 20260906010543 | 50 | 352 | 0.0 | 4.0 | 0.00 | 0.00 | 0.00 | 81 | 1007.4 |
| 20260906010108 | 50 | 0 | 0.0 | 3.0 | 0.00 | 0.00 | 0.00 | 81 | 1007.3 |
| 20260906005544 | 50 | 0 | 0.0 | 3.0 | 0.00 | 0.00 | 0.00 | 81 | 1007.3 |
| 20260906005043 | 50 | 311 | 0.0 | 2.0 | 0.00 | 0.00 | 0.00 | 81 | 1007.2 |
| 20260906004600 | 50 | 0 | 0.0 | 0.0 | 0.00 | 0.00 | 0.00 | 81 | 1007.1 |
| 20260906004043 | 50 | 0 | 0.0 | 2.0 | 0.00 | 0.00 | 0.00 | 81 | 1007.1 |
| 20260906003544 | 50 | 0 | 0.0 | 3.0 | 0.00 | 0.00 | 0.00 | 81 | 1007.1 |
| 20260906003105 | 50 | 0 | 0.0 | 3.0 | 0.00 | 0.00 | 0.00 | 81 | 1007.0 |
| 20260906002543 | 50 | 0 | 0.0 | 3.0 | 0.00 | 0.00 | 0.00 | 81 | 1007.0 |
| 20260906002047 | 50 | 319 | 0.0 | 4.0 | 0.00 | 0.00 | 0.00 | 81 | 1006.9 |
| 20260906001612 | 50 | 292 | 1.0 | 4.0 | 0.00 | 0.00 | 0.00 | 81 | 1006.8 |
| 20260906001043 | 50 | 0 | 0.0 | 3.0 | 0.00 | 0.00 | 0.00 | 81 | 1006.9 |
| 20260906000543 | 50 | 0 | 0.0 | 0.0 | 0.00 | 0.00 | 0.00 | 81 | 1006.8 |
| 20260905235543 | 50 | 0 | 0.0 | 2.0 | 0.00 | 0.00 | 0.00 | 81 | 1006.8 |
| 20260905235043 | 50 | 0 | 0.0 | 2.0 | 0.00 | 0.00 | 0.00 | 81 | 1006.8 |
| 20260905234559 | 50 | 5 | 0.0 | 2.0 | 0.00 | 0.00 | 0.00 | 81 | 1006.7 |
| 20260905234043 | 50 | 0 | 0.0 | 2.0 | 0.00 | 0.00 | 0.00 | 81 | 1006.7 |
| 20260905233545 | 51 | 246 | 0.0 | 1.0 | 0.00 | 0.00 | 0.00 | 81 | 1006.7 |
| 20260905233112 | 51 | 0 | 0.0 | 1.0 | 0.00 | 0.00 | 0.00 | 81 | 1006.7 |
| 20260905232543 | 51 | 0 | 0.0 | 3.0 | 0.00 | 0.00 | 0.00 | 81 | 1006.6 |
| 20260905232043 | 51 | 0 | 0.0 | 3.0 | 0.00 | 0.00 | 0.00 | 81 | 1006.6 |
| 20260905231554 | 51 | 0 | 0.0 | 3.0 | 0.00 | 0.00 | 0.00 | 81 | 1006.6 |
| 20260905231045 | 51 | 0 | 0.0 | 0.0 | 0.00 | 0.00 | 0.00 | 81 | 1006.6 |
| 20260905230543 | 51 | 0 | 0.0 | 1.0 | 0.00 | 0.00 | 0.00 | 81 | 1006.6 |
| 20260905230108 | 51 | 0 | 0.0 | 1.0 | 0.00 | 0.00 | 0.00 | 81 | 1006.6 |
| 20260905225543 | 51 | 0 | 0.0 | 2.0 | 0.00 | 0.00 | 0.00 | 82 | 1006.6 |
| 20260905225043 | 51 | 0 | 0.0 | 2.0 | 0.00 | 0.00 | 0.00 | 81 | 1006.5 |
| 20260905224601 | 51 | 0 | 0.0 | 2.0 | 0.00 | 0.00 | 0.00 | 81 | 1006.5 |
| 20260905224045 | 51 | 0 | 0.0 | 0.0 | 0.00 | 0.00 | 0.00 | 80 | 1006.5 |
| 20260905223543 | 51 | 0 | 0.0 | 0.0 | 0.00 | 0.00 | 0.00 | 80 | 1006.5 |
| 20260905223054 | 51 | 0 | 0.0 | 0.0 | 0.00 | 0.00 | 0.00 | 80 | 1006.5 |
| 20260905222544 | 51 | 0 | 0.0 | 0.0 | 0.00 | 0.00 | 0.00 | 80 | 1006.4 |
| 20260905222043 | 51 | 0 | 0.0 | 1.0 | 0.00 | 0.00 | 0.00 | 79 | 1006.4 |
| 20260905221606 | 51 | 0 | 0.0 | 1.0 | 0.00 | 0.00 | 0.00 | 79 | 1006.4 |
| 20260905221043 | 51 | 0 | 0.0 | 1.0 | 0.00 | 0.00 | 0.00 | 79 | 1006.4 |
| 20260905220547 | 51 | 0 | 0.0 | 0.0 | 0.00 | 0.00 | 0.00 | 79 | 1006.4 |
| 20260905220104 | 51 | 0 | 0.0 | 0.0 | 0.00 | 0.00 | 0.00 | 79 | 1006.2 |
| 20260905215543 | 51 | 0 | 0.0 | 0.0 | 0.00 | 0.00 | 0.00 | 79 | 1006.2 |
| 20260905215043 | 51 | 0 | 0.0 | 0.0 | 0.00 | 0.00 | 0.00 | 79 | 1006.1 |
| 20260905214556 | 52 | 0 | 0.0 | 0.0 | 0.00 | 0.00 | 0.00 | 79 | 1006.1 |
| 20260905214044 | 52 | 0 | 0.0 | 0.0 | 0.00 | 0.00 | 0.00 | 79 | 1006.0 |
| 20260905213544 | 52 | 0 | 0.0 | 0.0 | 0.00 | 0.00 | 0.00 | 79 | 1005.9 |
| 20260905213110 | 52 | 0 | 0.0 | 0.0 | 0.00 | 0.00 | 0.00 | 79 | 1005.8 |
| 20260905212543 | 52 | 0 | 0.0 | 0.0 | 0.00 | 0.00 | 0.00 | 79 | 1005.8 |
| 20260905212135 | 52 | 0 | 0.0 | 0.0 | 0.00 | 0.00 | 0.00 | 79 | 1005.7 |
| 20260905211604 | 52 | 0 | 0.0 | 0.0 | 0.00 | 0.00 | 0.00 | 79 | 1005.7 |
| 20260905211041 | 52 | 0 | 0.0 | 0.0 | 0.00 | 0.00 | 0.00 | 78 | 1005.8 |
| 20260905210543 | 52 | 0 | 0.0 | 0.0 | 0.00 | 0.00 | 0.00 | 78 | 1005.7 |
| 20260905210110 | 52 | 0 | 0.0 | 0.0 | 0.00 | 0.00 | 0.00 | 78 | 1005.7 |
| 20260905205541 | 52 | 0 | 0.0 | 0.0 | 0.00 | 0.00 | 0.00 | 78 | 1005.7 |
| 20260905205042 | 52 | 0 | 0.0 | 0.0 | 0.00 | 0.00 | 0.00 | 77 | 1005.7 |
| 20260905204600 | 52 | 0 | 0.0 | 0.0 | 0.00 | 0.00 | 0.00 | 77 | 1005.6 |
| 20260905204044 | 53 | 0 | 0.0 | 0.0 | 0.00 | 0.00 | 0.00 | 77 | 1005.6 |
| 20260905203544 | 53 | 0 | 0.0 | 0.0 | 0.00 | 0.00 | 0.00 | 77 | 1005.5 |
| 20260905203058 | 53 | 0 | 0.0 | 0.0 | 0.00 | 0.00 | 0.00 | 77 | 1005.4 |
| 20260905202541 | 53 | 0 | 0.0 | 0.0 | 0.00 | 0.00 | 0.00 | 76 | 1005.4 |
| 20260905202041 | 53 | 0 | 0.0 | 0.0 | 0.00 | 0.00 | 0.00 | 77 | 1005.3 |
| 20260905201604 | 53 | 0 | 0.0 | 0.0 | 0.00 | 0.00 | 0.00 | 77 | 1005.3 |
| 20260905201041 | 53 | 0 | 0.0 | 0.0 | 0.00 | 0.00 | 0.00 | 77 | 1005.2 |
| 20260905200539 | 54 | 0 | 0.0 | 0.0 | 0.00 | 0.00 | 0.00 | 77 | 1005.2 |
| 20260905200116 | 54 | 0 | 0.0 | 2.0 | 0.00 | 0.00 | 0.00 | 77 | 1005.2 |
| 20260905195541 | 54 | 0 | 0.0 | 2.0 | 0.00 | 0.00 | 0.00 | 77 | 1005.1 |
| 20260905195041 | 54 | 0 | 0.0 | 0.0 | 0.00 | 0.00 | 0.00 | 77 | 1005.1 |
| 20260905194610 | 54 | 0 | 0.0 | 2.0 | 0.00 | 0.00 | 0.00 | 77 | 1005.0 |
| 20260905194041 | 54 | 0 | 0.0 | 3.0 | 0.00 | 0.00 | 0.00 | 76 | 1004.9 |
| 20260905193540 | 54 | 275 | 0.0 | 3.0 | 0.00 | 0.00 | 0.00 | 76 | 1004.9 |
| 20260905193054 | 54 | 281 | 0.0 | 2.0 | 0.00 | 0.00 | 0.00 | 76 | 1004.9 |
| 20260905192541 | 54 | 0 | 0.0 | 0.0 | 0.00 | 0.00 | 0.00 | 75 | 1004.9 |
| 20260905192042 | 55 | 0 | 0.0 | 0.0 | 0.00 | 0.00 | 0.00 | 75 | 1004.9 |
| 20260905191552 | 55 | 0 | 0.0 | 0.0 | 0.00 | 0.00 | 0.00 | 75 | 1004.8 |
| 20260905191040 | 55 | 0 | 0.0 | 0.0 | 0.00 | 0.00 | 0.00 | 75 | 1004.8 |
| 20260905190542 | 55 | 0 | 0.0 | 0.0 | 0.00 | 0.00 | 0.00 | 76 | 1004.7 |
| 20260905185544 | 55 | 0 | 0.0 | 0.0 | 0.00 | 0.00 | 0.00 | 75 | 1004.7 |
| 20260905185046 | 56 | 0 | 0.0 | 0.0 | 0.00 | 0.00 | 0.00 | 75 | 1004.8 |
| 20260905184611 | 56 | 0 | 0.0 | 0.0 | 0.00 | 0.00 | 0.00 | 74 | 1004.8 |
| 20260905184041 | 56 | 0 | 0.0 | 0.0 | 0.00 | 0.00 | 0.00 | 74 | 1004.8 |
| 20260905183543 | 56 | 0 | 0.0 | 0.0 | 0.00 | 0.00 | 0.00 | 73 | 1004.7 |
| 20260905183055 | 56 | 0 | 0.0 | 0.0 | 0.00 | 0.00 | 0.00 | 73 | 1004.7 |
| 20260905182544 | 56 | 0 | 0.0 | 0.0 | 0.00 | 0.00 | 0.00 | 72 | 1004.7 |
| 20260905182042 | 57 | 0 | 0.0 | 0.0 | 0.00 | 0.00 | 0.00 | 72 | 1004.6 |
| 20260905181608 | 57 | 0 | 0.0 | 0.0 | 0.00 | 0.00 | 0.00 | 72 | 1004.5 |
| 20260905181042 | 57 | 0 | 0.0 | 0.0 | 0.00 | 0.00 | 0.00 | 71 | 1004.4 |
| 20260905180547 | 57 | 0 | 0.0 | 0.0 | 0.00 | 0.00 | 0.00 | 71 | 1004.3 |
| 20260905180112 | 57 | 0 | 0.0 | 2.0 | 0.00 | 0.00 | 0.00 | 71 | 1004.2 |
| 20260905175543 | 57 | 0 | 0.0 | 2.0 | 0.00 | 0.00 | 0.00 | 71 | 1004.2 |
| 20260905175045 | 58 | 0 | 0.0 | 0.0 | 0.00 | 0.00 | 0.00 | 71 | 1004.2 |
| 20260905174604 | 58 | 0 | 0.0 | 0.0 | 0.00 | 0.00 | 0.00 | 71 | 1004.2 |
| 20260905174045 | 58 | 0 | 0.0 | 0.0 | 0.00 | 0.00 | 0.00 | 71 | 1004.0 |
| 20260905173543 | 58 | 0 | 0.0 | 2.0 | 0.00 | 0.00 | 0.00 | 71 | 1003.9 |
| 20260905173057 | 58 | 0 | 0.0 | 4.0 | 0.00 | 0.00 | 0.00 | 70 | 1003.8 |
| 20260905172543 | 58 | 0 | 0.0 | 4.0 | 0.00 | 0.00 | 0.00 | 70 | 1003.8 |
| 20260905172043 | 59 | 329 | 1.0 | 4.0 | 0.00 | 0.00 | 0.00 | 70 | 1003.7 |
| 20260905171607 | 59 | 328 | 0.0 | 7.0 | 0.00 | 0.00 | 0.00 | 69 | 1003.7 |
| 20260905171043 | 59 | 11 | 2.0 | 7.0 | 0.00 | 0.00 | 0.00 | 69 | 1003.8 |
| 20260905170543 | 60 | 252 | 2.0 | 6.0 | 0.00 | 0.00 | 0.00 | 69 | 1003.7 |
| 20260905170104 | 60 | 5 | 3.0 | 6.0 | 0.00 | 0.00 | 0.00 | 68 | 1003.6 |
| 20260905165543 | 60 | 320 | 2.0 | 8.0 | 0.00 | 0.00 | 0.00 | 68 | 1003.5 |
| 20260905165043 | 61 | 317 | 3.0 | 8.0 | 0.00 | 0.00 | 0.00 | 68 | 1003.5 |
| 20260905164558 | 61 | 342 | 4.0 | 10.0 | 0.00 | 0.00 | 0.00 | 68 | 1003.5 |
| 20260905164043 | 62 | 273 | 3.0 | 10.0 | 0.00 | 0.00 | 0.00 | 68 | 1003.4 |
| 20260905163543 | 62 | 312 | 4.0 | 10.0 | 0.00 | 0.00 | 0.00 | 69 | 1003.4 |
| 20260905163104 | 62 | 318 | 3.0 | 9.0 | 0.00 | 0.00 | 0.00 | 69 | 1003.4 |
| 20260905162544 | 62 | 284 | 3.0 | 10.0 | 0.00 | 0.00 | 0.00 | 70 | 1003.4 |
| 20260905162044 | 62 | 343 | 4.0 | 10.0 | 0.00 | 0.00 | 0.00 | 70 | 1003.4 |
| 20260905161606 | 62 | 288 | 3.0 | 10.0 | 0.00 | 0.00 | 0.00 | 70 | 1003.4 |
| 20260905161043 | 62 | 257 | 3.0 | 12.0 | 0.00 | 0.00 | 0.00 | 69 | 1003.4 |
| 20260905160544 | 62 | 290 | 5.0 | 12.0 | 0.00 | 0.00 | 0.00 | 69 | 1003.4 |
| 20260905160058 | 62 | 13 | 4.0 | 10.0 | 0.00 | 0.00 | 0.00 | 69 | 1003.3 |
| 20260905155542 | 62 | 297 | 3.0 | 11.0 | 0.00 | 0.00 | 0.00 | 69 | 1003.2 |
| 20260905155042 | 62 | 265 | 4.0 | 11.0 | 0.00 | 0.00 | 0.00 | 68 | 1003.1 |
| 20260905154602 | 63 | 292 | 4.0 | 9.0 | 0.00 | 0.00 | 0.00 | 67 | 1003.1 |
| 20260905154046 | 63 | 286 | 5.0 | 11.0 | 0.00 | 0.00 | 0.00 | 66 | 1003.0 |
| 20260905153542 | 63 | 312 | 5.0 | 11.0 | 0.00 | 0.00 | 0.00 | 66 | 1003.0 |
| 20260905153100 | 63 | 292 | 5.0 | 11.0 | 0.00 | 0.00 | 0.00 | 65 | 1003.0 |
| 20260905152543 | 63 | 274 | 4.0 | 11.0 | 0.00 | 0.00 | 0.00 | 65 | 1003.0 |
| 20260905152043 | 64 | 296 | 5.0 | 10.0 | 0.00 | 0.00 | 0.00 | 64 | 1003.0 |
| 20260905151602 | 64 | 309 | 3.0 | 10.0 | 0.00 | 0.00 | 0.00 | 63 | 1002.9 |
| 20260905151043 | 64 | 299 | 4.0 | 10.0 | 0.00 | 0.00 | 0.00 | 62 | 1003.0 |
| 20260905150546 | 65 | 331 | 3.0 | 9.0 | 0.00 | 0.00 | 0.00 | 62 | 1002.9 |
| 20260905150059 | 65 | 319 | 2.0 | 9.0 | 0.00 | 0.00 | 0.00 | 61 | 1002.8 |
| 20260905145543 | 65 | 298 | 4.0 | 9.0 | 0.00 | 0.00 | 0.00 | 60 | 1002.8 |
| 20260905145043 | 65 | 254 | 2.0 | 8.0 | 0.00 | 0.00 | 0.00 | 59 | 1002.8 |
| 20260905144555 | 66 | 322 | 2.0 | 8.0 | 0.00 | 0.00 | 0.00 | 59 | 1002.8 |
| 20260905144045 | 66 | 319 | 3.0 | 9.0 | 0.00 | 0.00 | 0.00 | 59 | 1002.7 |
| 20260905143543 | 66 | 348 | 3.0 | 9.0 | 0.00 | 0.00 | 0.00 | 58 | 1002.7 |
| 20260905143105 | 67 | 333 | 2.0 | 8.0 | 0.00 | 0.00 | 0.00 | 58 | 1002.7 |
| 20260905142543 | 67 | 341 | 2.0 | 9.0 | 0.00 | 0.00 | 0.00 | 58 | 1002.7 |
| 20260905142043 | 67 | 290 | 3.0 | 11.0 | 0.00 | 0.00 | 0.00 | 58 | 1002.6 |
| 20260905141603 | 67 | 321 | 3.0 | 11.0 | 0.00 | 0.00 | 0.00 | 57 | 1002.6 |
| 20260905141043 | 68 | 313 | 2.0 | 8.0 | 0.00 | 0.00 | 0.00 | 56 | 1002.7 |
| 20260905140543 | 68 | 315 | 2.0 | 10.0 | 0.00 | 0.00 | 0.00 | 56 | 1002.6 |
| 20260905140059 | 68 | 352 | 3.0 | 10.0 | 0.00 | 0.00 | 0.00 | 56 | 1002.5 |
| 20260905135547 | 68 | 211 | 4.0 | 10.0 | 0.00 | 0.00 | 0.00 | 56 | 1002.4 |
| 20260905135043 | 67 | 345 | 4.0 | 10.0 | 0.00 | 0.00 | 0.00 | 56 | 1002.4 |
| 20260905134557 | 67 | 314 | 3.0 | 11.0 | 0.00 | 0.00 | 0.00 | 57 | 1002.4 |
| 20260905134046 | 67 | 351 | 5.0 | 12.0 | 0.00 | 0.00 | 0.00 | 56 | 1002.4 |
| 20260905133542 | 68 | 360 | 3.0 | 12.0 | 0.00 | 0.00 | 0.00 | 55 | 1002.4 |
| 20260905133102 | 68 | 5 | 4.0 | 10.0 | 0.00 | 0.00 | 0.00 | 56 | 1002.4 |
| 20260905132543 | 68 | 333 | 4.0 | 10.0 | 0.00 | 0.00 | 0.00 | 55 | 1002.3 |
| 20260905132044 | 68 | 296 | 3.0 | 10.0 | 0.00 | 0.00 | 0.00 | 57 | 1002.4 |
| 20260905131603 | 69 | 263 | 4.0 | 11.0 | 0.00 | 0.00 | 0.00 | 56 | 1002.2 |
| 20260905131043 | 69 | 273 | 1.0 | 11.0 | 0.00 | 0.00 | 0.00 | 57 | 1002.2 |
| 20260905130546 | 69 | 279 | 4.0 | 11.0 | 0.00 | 0.00 | 0.00 | 55 | 1002.1 |
| 20260905130057 | 69 | 25 | 2.0 | 9.0 | 0.00 | 0.00 | 0.00 | 55 | 1002.1 |
| 20260905125547 | 69 | 319 | 2.0 | 8.0 | 0.00 | 0.00 | 0.00 | 54 | 1002.0 |
| 20260905125043 | 69 | 305 | 3.0 | 9.0 | 0.00 | 0.00 | 0.00 | 54 | 1001.9 |
| 20260905124604 | 68 | 28 | 2.0 | 9.0 | 0.00 | 0.00 | 0.00 | 55 | 1001.9 |
| 20260905124042 | 68 | 335 | 2.0 | 9.0 | 0.00 | 0.00 | 0.00 | 54 | 1001.8 |
| 20260905123542 | 68 | 333 | 3.0 | 10.0 | 0.00 | 0.00 | 0.00 | 54 | 1001.9 |
| 20260905123108 | 68 | 269 | 3.0 | 10.0 | 0.00 | 0.00 | 0.00 | 54 | 1001.8 |
| 20260905122543 | 68 | 298 | 4.0 | 9.0 | 0.00 | 0.00 | 0.00 | 52 | 1001.8 |
| 20260905122042 | 68 | 26 | 3.0 | 8.0 | 0.00 | 0.00 | 0.00 | 52 | 1001.8 |
| 20260905121554 | 68 | 276 | 3.0 | 8.0 | 0.00 | 0.00 | 0.00 | 52 | 1001.9 |
| 20260905121043 | 69 | 280 | 4.0 | 9.0 | 0.00 | 0.00 | 0.00 | 52 | 1001.7 |
| 20260905120546 | 69 | 304 | 4.0 | 9.0 | 0.00 | 0.00 | 0.00 | 52 | 1001.7 |
| 20260905120104 | 69 | 292 | 3.0 | 8.0 | 0.00 | 0.00 | 0.00 | 51 | 1001.7 |
| 20260905115542 | 69 | 290 | 2.0 | 8.0 | 0.00 | 0.00 | 0.00 | 52 | 1001.7 |
| 20260905115043 | 69 | 341 | 3.0 | 8.0 | 0.00 | 0.00 | 0.00 | 51 | 1001.7 |
| 20260905114611 | 70 | 285 | 3.0 | 8.0 | 0.00 | 0.00 | 0.00 | 50 | 1001.6 |
| 20260905114043 | 70 | 329 | 3.0 | 8.0 | 0.00 | 0.00 | 0.00 | 50 | 1001.5 |
| 20260905113543 | 70 | 303 | 3.0 | 10.0 | 0.00 | 0.00 | 0.00 | 50 | 1001.5 |
| 20260905113053 | 71 | 319 | 4.0 | 10.0 | 0.00 | 0.00 | 0.00 | 49 | 1001.5 |
| 20260905112543 | 71 | 306 | 4.0 | 10.0 | 0.00 | 0.00 | 0.00 | 50 | 1001.4 |
| 20260905112046 | 71 | 307 | 3.0 | 8.0 | 0.00 | 0.00 | 0.00 | 49 | 1001.4 |
| 20260905111605 | 71 | 333 | 3.0 | 8.0 | 0.00 | 0.00 | 0.00 | 49 | 1001.4 |
| 20260905111043 | 71 | 321 | 2.0 | 8.0 | 0.00 | 0.00 | 0.00 | 49 | 1001.3 |
| 20260905110543 | 71 | 264 | 2.0 | 8.0 | 0.00 | 0.00 | 0.00 | 49 | 1001.3 |
| 20260905110104 | 71 | 341 | 2.0 | 8.0 | 0.00 | 0.00 | 0.00 | 50 | 1001.3 |
| 20260905105542 | 71 | 329 | 4.0 | 9.0 | 0.00 | 0.00 | 0.00 | 49 | 1001.2 |